STARLINK-11413, 62593

Orbit data source: Space-Track

STARLINK-11413, 62593 is a payload satellite owned by SpaceX/Seattle (US) in LEO that was launched on Mon, 13 Jan 2025 UTC via an FALCON 9 launch vehicle from the Air Force Eastern Test Range (AFETR). Payload-class satellites include a variety of spacecraft equipped with specific instruments for various scientific and technological missions. These include communications satellites like Starlink; space stations such as the ISS; scientific satellites like the Hubble; Earth observation satellites from companies like Planet Labs, Umbra, and HawkEye 360; GPS; miniature CubeSats for education and research; and military/defense satellites.

Loading next visibility...
Identifier
62593, 2025-008G
Orbit
LEO
Country
Flag of USUS
Related business
Manufacturer
SpaceX/Seattle
Mission
Operational Commercial Communications
Bus & Motor
STARLINK V2MD, Unknown motor
Mass
960 kg wet, ~910 kg dry
Launch date (UTC)
2025-01-13 (8 months ago)
Launch vehicle
FALCON 9
Launch site
Air Force Eastern Test Range (AFETR)
Object type
Payload
Rocket body
Debris
Shape & HBR
Box + 2 Pan, 14.5 m
Radar Cross Section
36.964 m², Large (>1 m²)

Expand to show TLE details & history
Last TLE update: 1 day ago

TLE from 1 day ago
0 STARLINK-11413
1 62593U 25008G   25259.93329524  .00204381  00000-0  15565-2 0  9992
2 62593  43.0001  93.7990 0001885 259.1129 100.9526 15.70853536 39854
Epoch: 2025-09-16T22:23Z
TLE epoch observation values (Epoch: 2025-09-16T22:23:56.708Z)
Latitude
-0.00007°
Longitude
121.69615°
Altitude
356.469 km
Speed
7.697 km/s
True Right ascension
06h 15m 11s
True Declination
0° 00' 00"
Sunlit
Object was in daylight at epoch
Visualization orbit readout
Latitude
Unknown
Longitude
Unknown
Altitude
Unknown
Speed
Unknown
Apparent Right ascension
Unknown
Apparent Declination
Unknown
Sunlit
N/A
Visualization observer readout
Local Sidereal Time
18:46:54
Azimuth
Unknown
Elevation
Unknown
Doppler factor
Unknown
Orbital elements
Apogee altitude
359.708 km
Perigee altitude
357.168 km
Semi-major axis
6,736.575 km
Eccentricity
0.00019
Inclination
43.0001°
RAAN
93.799°
Arg. of periapsis
259.1129°
True anomaly
100.97381°
Mean anomaly
100.9526°
Eccentric anomaly
100.9632°
Mean motion
3.9254 °/min
Orbital period
91.71 mins
BSTAR
0.0015565
Loading maneuver chart data...
Computing Atmospheric mass density...
Loading historical data...
Loading historical data...
Loading historical data...
Loading historical data...
Loading historical data...
Loading historical data...
Loading historical data...

Documentation

Showing up to 5 results
|